OSTR-WX Weather Reports


time (UTC)temp
F
wind
direction
speed
knots
gust
knots
rain 1hr
in
rain 24hr
in
rain mn
in
humidity
%
barometer
mb
20260507154719 65 0.0 0.0 0.00 0.00 0.00 83 1011.1
20260507153122 66 0.0 0.0 0.00 0.00 0.00 81 1011.2
20260507151525 66 0.0 0.0 0.00 0.00 0.00 78 1011.2
20260507145929 66 0.0 0.0 0.00 0.00 0.00 86 1011.1
20260507144332 66 0.0 0.0 0.00 0.00 0.00 87 1011.2
20260507142734 66 0.0 0.0 0.00 0.00 0.00 83 1011.3
20260507141144 65 0.0 0.0 0.00 0.00 0.00 83 1011.3
20260507141137 65 0.0 0.0 0.00 0.00 0.00 83 1011.3
20260507135540 65 0.0 0.0 0.00 0.00 0.00 83 1011.2
20260507133943 68 0.0 0.0 0.00 0.00 0.00 67 1011.2
20260507132346 70 0.0 0.0 0.00 0.00 0.00 60 1010.9
20260507130749 71 0.0 0.0 0.00 0.00 0.00 61 1010.8
20260507125152 72 0.0 0.0 0.00 0.00 0.00 60 1010.9
20260507123555 71 0.0 0.0 0.00 0.00 0.00 62 1010.9
20260507121959 71 0.0 0.0 0.00 0.00 0.00 61 1011.0
20260507120401 72 0.0 0.0 0.00 0.00 0.00 59 1010.9
20260507114805 72 0.0 0.0 0.00 0.00 0.00 61 1010.9
20260507113207 72 0.0 0.0 0.00 0.00 0.00 62 1011.0
20260507111610 71 0.0 0.0 0.00 0.00 0.00 62 1011.1
20260507110019 71 0.0 0.0 0.00 0.00 0.00 65 1011.2
20260507110014 71 0.0 0.0 0.00 0.00 0.00 65 1011.2
20260507104417 70 0.0 0.0 0.00 0.00 0.00 69 1011.1
20260507102819 70 0.0 0.0 0.00 0.00 0.00 67 1011.1
20260507101222 71 0.0 0.0 0.00 0.00 0.00 67 1010.9
20260507095625 71 0.0 0.0 0.00 0.00 0.00 68 1010.8
20260507094029 70 0.0 0.0 0.00 0.00 0.00 69 1010.7
20260507092818 69 0.0 0.0 0.00 0.00 0.00 71 1010.8
20260507092431 69 0.0 0.0 0.00 0.00 0.00 71 1010.8
20260507090839 67 0.0 0.0 0.00 0.00 0.00 72 1010.7
20260507090834 67 0.0 0.0 0.00 0.00 0.00 72 1010.7
20260507085237 68 0.0 0.0 0.00 0.00 0.00 73 1010.4
20260507083647 69 0.0 0.0 0.00 0.00 0.00 72 1010.1
20260507083642 69 0.0 0.0 0.00 0.00 0.00 72 1010.1
20260507082043 67 0.0 0.0 0.00 0.00 0.00 73 1010.0
20260507080446 67 0.0 0.0 0.00 0.00 0.00 74 1010.1
20260507074849 66 0.0 0.0 0.00 0.00 0.00 74 1009.9
20260507073252 65 0.0 0.0 0.00 0.00 0.00 78 1009.8
20260507071655 64 0.0 0.0 0.00 0.00 0.00 78 1009.7
20260507070104 63 0.0 0.0 0.00 0.00 0.00 81 1009.8
20260507070058 63 0.0 0.0 0.00 0.00 0.00 81 1009.8
20260507064501 63 0.0 0.0 0.00 0.00 0.00 82 1009.9
20260507062904 62 0.0 0.0 0.00 0.00 0.00 83 1009.9
20260507061307 62 0.0 0.0 0.00 0.00 0.00 83 1009.7
20260507055710 62 0.0 0.0 0.00 0.00 0.00 86 1009.5
20260507054117 62 0.0 0.0 0.00 0.00 0.00 86 1009.2
20260507054113 62 0.0 0.0 0.00 0.00 0.00 86 1009.2
20260507052516 62 0.0 0.0 0.00 0.00 0.00 85 1009.1
20260507050919 62 0.0 0.0 0.00 0.00 0.00 86 1008.9
20260507045322 62 0.0 0.0 0.00 0.00 0.00 86 1008.8
20260507043731 61 0.0 0.0 0.00 0.00 0.00 87 1008.5
20260507043725 61 0.0 0.0 0.00 0.00 0.00 87 1008.5
20260507042129 61 0.0 0.0 0.00 0.00 0.00 89 1008.6
20260507040531 61 0.0 0.0 0.00 0.00 0.00 90 1008.3
20260507034938 60 0.0 0.0 0.00 0.00 0.00 91 1008.3
20260507034933 60 0.0 0.0 0.00 0.00 0.00 91 1008.3
20260507033337 60 0.0 0.0 0.00 0.00 0.00 90 1008.2
20260507031740 60 0.0 0.0 0.00 0.00 0.00 91 1007.9
20260507030142 60 0.0 0.0 0.00 0.00 0.00 90 1007.9
20260507024551 60 0.0 0.0 0.00 0.00 0.00 88 1007.9
20260507024545 60 0.0 0.0 0.00 0.00 0.00 88 1007.9
20260507022948 59 0.0 0.0 0.00 0.00 0.00 89 1007.8
20260507021357 60 0.0 0.0 0.00 0.00 0.00 88 1007.6
20260507021352 60 0.0 0.0 0.00 0.00 0.00 88 1007.6
20260507015754 61 0.0 0.0 0.00 0.00 0.00 85 1007.4
20260507014157 61 0.0 0.0 0.00 0.00 0.00 86 1007.5
20260507012610 62 0.0 0.0 0.00 0.00 0.00 84 1007.3
20260507012600 62 0.0 0.0 0.00 0.00 0.00 84 1007.3
20260507011003 62 0.0 0.0 0.00 0.00 0.00 85 1007.2
20260507005406 62 0.0 0.0 0.00 0.00 0.00 85 1007.3
20260507003810 62 0.0 0.0 0.00 0.00 0.00 85 1007.2
20260507002213 61 0.0 0.0 0.00 0.00 0.00 88 1007.2
20260507000615 61 0.0 0.0 0.00 0.00 0.00 90 1007.4
20260506235023 61 0.0 0.0 0.00 0.00 0.00 90 1007.4
20260506235018 61 0.0 0.0 0.00 0.00 0.00 90 1007.4
20260506233426 60 0.0 0.0 0.00 0.00 0.00 90 1007.5
20260506233421 60 0.0 0.0 0.00 0.00 0.00 90 1007.5
20260506231824 60 0.0 0.0 0.00 0.00 0.00 92 1007.6
20260506230235 59 0.0 0.0 0.00 0.00 0.00 93 1007.7
20260506230228 59 0.0 0.0 0.00 0.00 0.00 93 1007.7
20260506224635 58 0.0 0.0 0.00 0.00 0.00 95 1007.9
20260506223034 57 0.0 0.0 0.00 0.00 0.00 96 1007.8
20260506221437 57 0.0 0.0 0.00 0.00 0.00 97 1007.6
20260506215844 57 0.0 0.0 0.00 0.00 0.00 96 1007.7
20260506215840 57 0.0 0.0 0.00 0.00 0.00 96 1007.7
20260506214249 57 0.0 0.0 0.00 0.00 0.00 96 1007.8
20260506214243 57 0.0 0.0 0.00 0.00 0.00 96 1007.8
20260506212650 57 0.0 0.0 0.00 0.00 0.00 96 1007.8
20260506212646 57 0.0 0.0 0.00 0.00 0.00 96 1007.8
20260506211049 57 0.0 0.0 0.00 0.00 0.00 95 1007.8
20260506205458 57 0.0 0.0 0.00 0.00 0.00 95 1007.6
20260506205452 57 0.0 0.0 0.00 0.00 0.00 95 1007.6
20260506203901 57 0.0 0.0 0.00 0.00 0.00 96 1007.5
20260506203855 57 0.0 0.0 0.00 0.00 0.00 96 1007.5
20260506202306 57 0.0 0.0 0.00 0.00 0.00 95 1007.5
20260506202258 57 0.0 0.0 0.00 0.00 0.00 95 1007.5
20260506200718 57 0.0 0.0 0.00 0.00 0.00 94 1007.4
20260506200707 57 0.0 0.0 0.00 0.00 0.00 94 1007.4
20260506200702 57 0.0 0.0 0.00 0.00 0.00 94 1007.4
20260506195104 57 0.0 0.0 0.00 0.00 0.00 93 1007.3
20260506193507 58 0.0 0.0 0.00 0.00 0.00 92 1007.2
20260506191910 58 0.0 0.0 0.00 0.00 0.00 92 1007.2
20260506190323 59 0.0 0.0 0.00 0.00 0.00 89 1007.0
20260506190314 59 0.0 0.0 0.00 0.00 0.00 89 1007.0
20260506184716 60 0.0 0.0 0.00 0.00 0.00 84 1006.7
20260506183119 62 0.0 0.0 0.00 0.00 0.00 76 1006.6
20260506181523 65 0.0 0.0 0.00 0.00 0.00 66 1006.1
20260506175925 67 0.0 0.0 0.00 0.00 0.00 65 1006.0
20260506174330 68 0.0 0.0 0.00 0.00 0.00 62 1005.8
20260506172731 68 0.0 0.0 0.00 0.00 0.00 64 1006.0
20260506171134 68 0.0 0.0 0.00 0.00 0.00 60 1006.0
20260506165537 70 0.0 0.0 0.00 0.00 0.00 57 1005.8
20260506163946 72 0.0 0.0 0.00 0.00 0.00 53 1005.7
20260506163940 72 0.0 0.0 0.00 0.00 0.00 53 1005.7
20260506162518 73 0.0 0.0 0.00 0.00 0.00 48 1005.6
20260506162343 73 0.0 0.0 0.00 0.00 0.00 48 1005.6
20260506160751 73 0.0 0.0 0.00 0.00 0.00 48 1005.6
20260506160746 73 0.0 0.0 0.00 0.00 0.00 48 1005.6